Weather History for Barcelona, Spain

Change the Weather History Date:

Sunday, February 23, 2014

  Actual Average Record
Temperature  
Mean Temperature 50 °F -  
Max Temperature 59 °F 58 °F 64 °F (1998)
Min Temperature 41 °F 44 °F 33 °F (2013)
Degree Days  
Heating Degree Days 15    
Moisture  
Dew Point 41 °F    
Average Humidity 70    
Maximum Humidity 88    
Minimum Humidity 47    
Precipitation  
Precipitation 0.00 in 0.06 in - ()
Sea Level Pressure  
Sea Level Pressure 30.16 in    
Wind  
Wind Speed 9 mph ()    
Max Wind Speed 16 mph    
Max Gust Speed -    
Visibility 10.6 miles    
Events      
Averages and records for this station are not official NWS values.
T = Trace of Precipitation, MM = Missing Value Source: Averaged Metar Reports

Daily Weather History Graph

Daily Weather History Graph

Search for Another Location

Airport:

Trip Planner

Search our weather history database for the weather conditions in past years. The results will help you decide how hot, cold, wet, or windy it might be!

Date:

Astronomy

Feb. 23, 2014 Rise Set
Actual Time 7:35 AM CET 6:35 PM CET
Civil Twilight 7:07 AM CET 7:03 PM CET
Nautical Twilight 6:35 AM CET 7:35 PM CET
Astronomical Twilight 6:03 AM CET 8:07 PM CET
Moon 2:19 AM CET (2/23) 12:21 PM CET (2/23)
Length of Visible Light 11h 55m
Length of Day
10h 59m
Last Quarter, 42% of the Moon is Illuminated
Feb 23
Last Quarter
Mar 1
New
Mar 8
First Quarter
Mar 16
Full
Mar 24
Last Quarter

Hourly Weather History & Observations

Time (CET) Temp. Windchill Dew Point Humidity Pressure Visibility Wind Dir Wind Speed Gust Speed Precip Events Conditions
12:00 AM 46 °F - 38 °F 64% 30.25 in 14 mi North 8.1 mph - -  
12:00 AM 46.4 °F 42.9 °F 35.6 °F 66% 30.24 in 6.2 mi NW 6.9 mph - N/A   Partly Cloudy
12:30 AM 44.6 °F 40.7 °F 35.6 °F 71% 30.24 in 6.2 mi WNW 6.9 mph - N/A   Partly Cloudy
1:00 AM 44 °F - 37 °F 70% 30.25 in 12 mi NNW 3.5 mph - -   Scattered Clouds
1:00 AM 44.6 °F 40.2 °F 35.6 °F 71% 30.24 in 6.2 mi NW 8.1 mph - N/A   Partly Cloudy
1:30 AM 44.6 °F 39.7 °F 35.6 °F 71% 30.24 in 6.2 mi NW 9.2 mph - N/A   Partly Cloudy
2:00 AM 44 °F - 38 °F 71% 30.24 in 11 mi North 9.2 mph - -  
2:30 AM 44.6 °F 39.2 °F 35.6 °F 71% 30.21 in 6.2 mi NW 10.4 mph - N/A   Partly Cloudy
3:00 AM 44 °F - 37 °F 68% 30.23 in 9 mi North 12.7 mph - -  
3:00 AM 44.6 °F 39.2 °F 35.6 °F 71% 30.21 in 6.2 mi NW 10.4 mph - N/A   Partly Cloudy
3:30 AM 44.6 °F 38.4 °F 35.6 °F 71% 30.21 in 6.2 mi NW 12.7 mph - N/A   Partly Cloudy
4:00 AM 44 °F - 37 °F 67% 30.22 in 14 mi North 13.8 mph - -   Scattered Clouds
4:00 AM 42.8 °F 37.0 °F 33.8 °F 70% 30.18 in 6.2 mi NNW 10.4 mph - N/A   Partly Cloudy
5:00 AM 43 °F - 36 °F 69% 30.21 in 16 mi NNW 9.2 mph - -  
5:00 AM 42.8 °F 37.5 °F 33.8 °F 70% 30.18 in - NW 9.2 mph - N/A   Clear
5:30 AM 42.8 °F 36.6 °F 33.8 °F 70% 30.18 in - NW 11.5 mph - N/A   Clear
6:00 AM 42 °F - 36 °F 72% 30.21 in 14 mi North 12.7 mph - -  
6:00 AM 42.8 °F 36.2 °F 33.8 °F 70% 30.21 in - NW 12.7 mph - N/A   Clear
6:30 AM 41.0 °F 34.3 °F 33.8 °F 76% 30.21 in - NW 11.5 mph - N/A   Clear
7:00 AM 42 °F - 36 °F 71% 30.21 in 14 mi North 15.0 mph - -  
7:00 AM 41.0 °F 33.9 °F 33.8 °F 76% 30.21 in - NW 12.7 mph - N/A   Clear
7:30 AM 41.0 °F 33.5 °F 33.8 °F 76% 30.18 in - NNW 13.8 mph - N/A   Clear
8:00 AM 41 °F - 35 °F 72% 30.22 in 16 mi North 16.1 mph - -  
8:00 AM 41.0 °F 33.5 °F 33.8 °F 76% 30.21 in - NNW 13.8 mph - N/A   Clear
8:30 AM 41.0 °F 34.3 °F 33.8 °F 76% 30.21 in - NNW 11.5 mph - N/A   Clear
9:00 AM 43 °F - 36 °F 67% 30.22 in 19 mi North 15.0 mph - -  
9:00 AM 42.8 °F 35.4 °F 33.8 °F 70% 30.21 in - NNW 15.0 mph - N/A   Clear
9:30 AM 44.6 °F 38.8 °F 33.8 °F 66% 30.21 in - NNW 11.5 mph - N/A   Clear
10:00 AM 48 °F - 38 °F 58% 30.22 in 19 mi North 10.4 mph - -  
10:00 AM 46.4 °F 41.1 °F 35.6 °F 66% 30.21 in - NW 11.5 mph - N/A   Clear
10:30 AM 50.0 °F - 37.4 °F 62% 30.21 in - NW 9.2 mph - N/A   Clear
11:00 AM 54 °F - 40 °F 49% 30.21 in 12 mi North 6.9 mph - -  
11:00 AM 53.6 °F - 37.4 °F 54% 30.18 in - NW 8.1 mph - N/A   Clear
11:30 AM 55.4 °F - 39.2 °F 54% 30.18 in - NW 4.6 mph - N/A   Clear
12:00 PM 58 °F - 44 °F 48% 30.20 in 19 mi SSW 6.9 mph - -  
12:00 PM 57.2 °F - 39.2 °F 51% 30.18 in - West 3.5 mph - N/A   Clear
12:30 PM 57.2 °F - 41.0 °F 55% 30.18 in - SSW 6.9 mph - N/A   Clear
1:00 PM 58 °F - 43 °F 47% 30.18 in 9 mi SSW 10.4 mph - -  
1:00 PM 57.2 °F - 39.2 °F 51% 30.18 in - South 6.9 mph - N/A   Clear
1:30 PM 57.2 °F - 41.0 °F 55% 30.15 in - South 9.2 mph - N/A   Clear
2:00 PM 58 °F - 44 °F 48% 30.15 in 13 mi SSW 11.5 mph - -  
2:00 PM 57.2 °F - 41.0 °F 55% 30.15 in - South 10.4 mph - N/A   Clear
2:30 PM 57.2 °F - 42.8 °F 59% 30.12 in - South 11.5 mph - N/A   Clear
3:00 PM 58 °F - 48 °F 59% 30.13 in 9 mi SSW 11.5 mph - -  
3:00 PM 57.2 °F - 44.6 °F 63% 30.12 in - SSW 11.5 mph - N/A   Clear
3:30 PM 57.2 °F - 48.2 °F 72% 30.09 in - SSW 10.4 mph - N/A   Clear
4:00 PM 59 °F - 49 °F 59% 30.11 in 14 mi SW 12.7 mph - -  
4:00 PM 57.2 °F - 46.4 °F 67% 30.09 in - SSW 12.7 mph - N/A   Clear
4:30 PM 57.2 °F - 46.4 °F 67% 30.09 in - SSW 11.5 mph - N/A   Clear
5:00 PM 58 °F - 50 °F 68% 30.10 in 19 mi SSW 12.7 mph - -  
5:00 PM 57.2 °F - 48.2 °F 72% 30.09 in - SSW 11.5 mph - N/A   Clear
5:30 PM 57.2 °F - 48.2 °F 72% 30.09 in - SSW 11.5 mph - N/A   Clear
6:00 PM 57 °F - 51 °F 75% 30.09 in 19 mi SW 10.4 mph - -  
6:00 PM 55.4 °F - 50.0 °F 82% 30.06 in 6.2 mi SSW 9.2 mph - N/A   Partly Cloudy
6:30 PM 55.4 °F - 48.2 °F 77% 30.09 in 6.2 mi SSW 9.2 mph - N/A   Partly Cloudy
7:00 PM 55 °F - 51 °F 82% 30.10 in 15 mi SW 6.9 mph - -   Partly Cloudy
7:00 PM 53.6 °F - 48.2 °F 82% 30.09 in 6.2 mi SSW 6.9 mph - N/A   Scattered Clouds
7:30 PM 53.6 °F - 48.2 °F 82% 30.09 in 6.2 mi SW 8.1 mph - N/A   Scattered Clouds
8:00 PM 55 °F - 51 °F 81% 30.10 in 17 mi SW 6.9 mph - -  
8:00 PM 53.6 °F - 48.2 °F 82% 30.09 in 6.2 mi SW 8.1 mph - N/A   Scattered Clouds
8:30 PM 53.6 °F - 48.2 °F 82% 30.09 in 6.2 mi SW 8.1 mph - N/A   Scattered Clouds
9:00 PM 54 °F - 50 °F 82% 30.10 in 17 mi SW 6.9 mph - -  
9:00 PM 53.6 °F - 48.2 °F 82% 30.09 in 6.2 mi SW 8.1 mph - N/A   Partly Cloudy
9:30 PM 51.8 °F - 46.4 °F 82% 30.09 in 6.2 mi West 5.8 mph - N/A   Partly Cloudy
10:00 PM 50 °F - 47 °F 88% 30.11 in 9 mi North 3.5 mph - -   Scattered Clouds
10:00 PM 50.0 °F - 46.4 °F 87% 30.09 in 6.2 mi NW 4.6 mph - N/A   Partly Cloudy
10:30 PM 48.2 °F - 44.6 °F 87% 30.09 in 6.2 mi NW 4.6 mph - N/A   Partly Cloudy
11:00 PM 49 °F - 46 °F 84% 30.11 in 12 mi North 6.9 mph - -  
11:00 PM 48.2 °F - 44.6 °F 87% 30.09 in 6.2 mi NW 4.6 mph - N/A   Partly Cloudy
11:30 PM 48.2 °F - 42.8 °F 82% 30.09 in 6.2 mi NW 5.8 mph - N/A   Partly Cloudy